This is the latest recevied weather packets stored in our database for station/object EA7JCM-13. If no packets are shown the sender has not sent any weather packets the latest 10 day(s).
| Time | Temp. | Humidity | Pressure | Rain* | Wind** | Luminosity | Snow |
|---|---|---|---|---|---|---|---|
| 1777721404 | 20.56° C | 63% | 1014.6 hPa | 0 mm | - | - | - |
| 1777721105 | 20.56° C | 62% | 1014.6 hPa | 0 mm | - | - | - |
| 1777720803 | 20° C | 64% | 1014.7 hPa | 0 mm | - | - | - |
| 1777720504 | 20.56° C | 63% | 1014.8 hPa | 0 mm | - | - | - |
| 1777720204 | 20° C | 64% | 1014.7 hPa | 0 mm | - | - | - |
| 1777719904 | 20.56° C | 64% | 1014.9 hPa | 0 mm | - | - | - |
| 1777719604 | 20° C | 63% | 1014.9 hPa | 0 mm | - | - | - |
| 1777719303 | 20° C | 65% | 1014.9 hPa | 0 mm | - | - | - |
| 1777719004 | 20° C | 65% | 1014.8 hPa | 0 mm | - | - | - |
| 1777718704 | 20° C | 65% | 1015 hPa | 0 mm | - | - | - |
| 1777718404 | 20° C | 64% | 1014.9 hPa | 0 mm | - | - | - |
| 1777718103 | 19.44° C | 65% | 1015 hPa | 0 mm | - | - | - |
| 1777717804 | 19.44° C | 65% | 1014.7 hPa | 0 mm | - | - | - |
| 1777717504 | 19.44° C | 67% | 1014.9 hPa | 0 mm | - | - | - |
| 1777717204 | 19.44° C | 66% | 1015.1 hPa | 0 mm | - | - | - |
| 1777716903 | 19.44° C | 66% | 1015.2 hPa | 0 mm | - | - | - |
| 1777716604 | 19.44° C | 66% | 1015.1 hPa | 0 mm | - | - | - |
| 1777716304 | 18.89° C | 66% | 1015.3 hPa | 0 mm | - | - | - |
| 1777716004 | 18.89° C | 67% | 1015.1 hPa | 0 mm | - | - | - |
| 1777715704 | 18.33° C | 68% | 1015.1 hPa | 0 mm | - | - | - |
| 1777715403 | 18.33° C | 69% | 1015.3 hPa | 0 mm | - | - | - |
| 1777715104 | 18.89° C | 69% | 1015.2 hPa | 0 mm | - | - | - |
| 1777714804 | 18.89° C | 69% | 1015.1 hPa | 0 mm | - | - | - |
| 1777714503 | 18.33° C | 70% | 1015.4 hPa | 0 mm | - | - | - |
| 1777714204 | 18.33° C | 71% | 1015.3 hPa | 0 mm | - | - | - |
* Rain latest hour (hover to see other rain measurements)
** Current wind speed in m/s (hover to see current wind gust speed)